FW7926 Weather Reports


time (UTC)temp
C
wind
direction
speed
KPH
gust
KPH
rain 1hr
cm
rain 24hr
cm
rain mn
cm
humidity
%
barometer
mb
20260504081712 13 196 0.0 3.2 0.00 1.27 1.24 92 1008.2
20260504081206 14 196 0.0 3.2 0.00 1.27 1.24 91 1008.6
20260504080700 14 196 0.0 0.0 0.00 1.27 1.24 90 1008.8
20260504080154 14 196 0.0 0.0 0.00 1.27 1.24 90 1009.0
20260504050355 15 132 4.8 12.9 0.05 0.05 0.03 78 1009.4
20260504045857 15 324 6.4 12.9 0.03 0.03 0.03 75 1010.2
20260504045406 15 213 3.2 12.9 0.00 0.00 0.00 73 1008.3
20260504044854 16 194 3.2 8.0 0.00 0.00 0.00 71 1008.9
20260504044353 16 164 1.6 6.4 0.00 0.00 0.00 69 1008.8
20260504043854 16 186 1.6 12.9 0.00 0.00 0.00 68 1008.9
20260504043618 16 174 1.6 12.9 0.00 0.00 0.00 68 1008.8
20260504042854 16 126 3.2 9.7 0.00 0.00 0.00 69 1008.9
20260504042353 16 174 1.6 9.7 0.00 0.00 0.00 68 1009.2
20260504042121 16 148 1.6 6.4 0.00 0.00 0.00 69 1009.4
20260504041353 16 167 1.6 6.4 0.00 0.00 0.00 69 1009.5
20260504041121 16 133 0.0 0.0 0.00 0.00 0.00 69 1009.6
20260504040406 16 182 0.0 1.6 0.00 0.00 0.00 70 1009.7
20260504035855 16 153 0.0 1.6 0.00 0.00 0.00 70 1009.5
20260504035353 16 173 0.0 1.6 0.00 0.00 0.00 69 1009.5
20260504035115 16 173 0.0 0.0 0.00 0.00 0.00 69 1009.6
20260504034354 17 173 0.0 0.0 0.00 0.00 0.00 68 1009.6
20260504033848 17 173 0.0 6.4 0.00 0.00 0.00 67 1009.6
20260504033343 17 188 0.0 6.4 0.00 0.00 0.00 66 1009.6
20260504032836 17 188 1.6 6.4 0.00 0.00 0.00 65 1009.6
20260504032331 17 193 1.6 6.4 0.00 0.00 0.00 64 1009.7
20260504031825 18 190 3.2 11.3 0.00 0.00 0.00 64 1009.8
20260504031318 18 201 4.8 11.3 0.00 0.00 0.00 63 1009.7
20260504030813 18 202 4.8 9.7 0.00 0.00 0.00 63 1009.9
20260504030307 18 157 4.8 12.9 0.00 0.00 0.00 63 1009.8
20260504030246 18 208 4.8 12.9 0.00 0.00 0.00 63 1009.8
20260504025255 18 194 4.8 14.5 0.00 0.00 0.00 63 1009.7
20260504024749 18 176 4.8 14.5 0.00 0.00 0.00 62 1009.8
20260504024243 18 187 4.8 9.7 0.00 0.00 0.00 62 1009.9
20260504023737 18 153 4.8 9.7 0.00 0.00 0.00 61 1009.8
20260504023453 18 232 4.8 9.7 0.00 0.00 0.00 61 1009.9
20260504022947 18 234 4.8 11.3 0.00 0.00 0.00 61 1009.9
20260504022438 18 242 4.8 12.9 0.00 0.00 0.00 62 1009.9
20260504021712 18 222 4.8 12.9 0.00 0.00 0.00 60 1009.7
20260504021430 18 218 6.4 12.9 0.00 0.00 0.00 61 1009.6
20260504020701 18 235 6.4 12.9 0.00 0.00 0.00 60 1009.5
20260504020155 18 253 4.8 12.9 0.00 0.00 0.00 60 1009.7
20260504015649 19 198 1.6 12.9 0.00 0.00 0.00 59 1009.7
20260504015143 19 224 1.6 11.3 0.00 0.00 0.00 60 1009.7
20260504014637 19 223 3.2 11.3 0.00 0.00 0.00 60 1009.7
20260504014131 19 151 1.6 9.7 0.00 0.00 0.00 58 1009.6
20260504013625 19 191 0.0 3.2 0.00 0.00 0.00 58 1009.5
20260504013119 19 134 1.6 9.7 0.00 0.00 0.00 57 1009.4
20260504012613 19 174 3.2 9.7 0.00 0.00 0.00 58 1009.4
20260504012107 19 186 3.2 9.7 0.00 0.00 0.00 57 1009.4
20260504011600 20 218 3.2 9.7 0.00 0.00 0.00 57 1009.4
20260504011314 20 213 3.2 8.0 0.00 0.00 0.00 57 1009.4
20260504010823 20 243 3.2 11.3 0.00 0.00 0.00 57 1009.4
20260504010042 20 182 3.2 11.3 0.00 0.00 0.00 56 1009.2
20260504005758 20 226 3.2 12.9 0.00 0.00 0.00 56 1009.3
20260504005248 20 199 3.2 14.5 0.00 0.00 0.00 57 1009.1
20260504004524 20 178 3.2 8.0 0.00 0.00 0.00 56 1009.1
20260504004243 20 139 3.2 12.9 0.00 0.00 0.00 56 1009.2
20260504003521 20 170 4.8 12.9 0.00 0.00 0.00 55 1009.1
20260504003252 20 134 6.4 17.7 0.00 0.00 0.00 55 1009.1
20260504002518 20 185 6.4 17.7 0.00 0.00 0.00 54 1009.1
20260504002020 20 208 6.4 14.5 0.00 0.00 0.00 55 1009.2
20260504001518 21 218 3.2 12.9 0.00 0.00 0.00 54 1009.3
20260504001016 21 190 3.2 14.5 0.00 0.00 0.00 54 1009.3
20260504000512 21 242 3.2 14.5 0.00 0.00 0.00 54 1009.3
20260504000012 21 222 3.2 12.9 0.00 0.00 0.00 53 1009.3
20260503235512 21 218 1.6 12.9 0.00 0.00 0.00 53 1009.4
20260503235014 21 186 1.6 9.7 0.00 0.00 0.00 54 1009.4
20260503234519 21 203 4.8 12.9 0.00 0.00 0.00 53 1009.4
20260503234016 21 232 4.8 12.9 0.00 0.00 0.00 51 1009.4
20260503233512 22 48 3.2 12.9 0.00 0.00 0.00 52 1009.4
20260503233012 22 193 4.8 12.9 0.00 0.00 0.00 52 1009.2
20260503232512 22 201 4.8 22.5 0.00 0.00 0.00 50 1009.7
20260503232012 22 233 6.4 22.5 0.00 0.00 0.00 49 1009.4
20260503231513 22 195 6.4 17.7 0.00 0.00 0.00 48 1009.5
20260503231237 22 196 6.4 17.7 0.00 0.00 0.00 47 1009.6
20260503230508 22 218 6.4 16.1 0.00 0.00 0.00 48 1009.9
20260503230008 23 192 8.0 16.1 0.00 0.00 0.00 47 1009.8
20260503225508 23 208 8.0 16.1 0.00 0.00 0.00 45 1010.0
20260503225008 23 134 8.0 19.3 0.00 0.00 0.00 45 1010.0
20260503224509 24 229 9.7 22.5 0.00 0.00 0.00 43 1010.0
20260503224008 23 280 9.7 22.5 0.00 0.00 0.00 42 1010.1
20260503223511 23 226 9.7 20.9 0.00 0.00 0.00 44 1010.2
20260503223008 23 302 11.3 27.4 0.00 0.00 0.00 45 1010.2
20260503222507 23 248 11.3 27.4 0.00 0.00 0.00 42 1010.2
20260503222009 23 226 9.7 25.7 0.00 0.00 0.00 45 1010.1
20260503221503 23 208 11.3 24.1 0.00 0.00 0.00 44 1010.1
20260503221003 23 224 12.9 24.1 0.00 0.00 0.00 44 1010.2
20260503220503 23 301 11.3 22.5 0.00 0.00 0.00 44 1010.0
20260503220001 23 233 11.3 27.4 0.00 0.00 0.00 45 1010.3
20260503215502 23 250 12.9 27.4 0.00 0.00 0.00 44 1010.3
20260503215003 23 203 12.9 24.1 0.00 0.00 0.00 45 1010.1
20260503214501 23 218 12.9 32.2 0.00 0.00 0.00 44 1010.3
20260503214003 23 229 14.5 32.2 0.00 0.00 0.00 45 1010.1
20260503213509 23 226 16.1 32.2 0.00 0.00 0.00 45 1010.1
20260503213005 22 225 16.1 32.2 0.00 0.00 0.00 43 1010.2
20260503212501 22 222 16.1 32.2 0.00 0.00 0.00 45 1010.3
20260503211959 22 225 14.5 27.4 0.00 0.00 0.00 44 1010.5
20260503211458 22 239 14.5 30.6 0.00 0.00 0.00 44 1010.6
20260503210952 22 213 12.9 30.6 0.00 0.00 0.00 44 1010.8
20260503210447 22 259 14.5 30.6 0.00 0.00 0.00 44 1010.8
20260503205940 22 251 14.5 32.2 0.00 0.00 0.00 42 1010.9
20260503205656 22 218 14.5 32.2 0.00 0.00 0.00 46 1010.7
20260503204928 22 232 16.1 38.6 0.00 0.00 0.00 46 1010.8
20260503204422 21 168 16.1 38.6 0.00 0.00 0.00 47 1010.8
20260503203916 22 256 16.1 35.4 0.00 0.00 0.00 44 1010.9
20260503203410 22 234 17.7 37.0 0.00 0.00 0.00 46 1010.9
20260503202904 22 262 16.1 37.0 0.00 0.00 0.00 44 1011.2
20260503202626 21 248 16.1 33.8 0.00 0.00 0.00 46 1011.1
20260503201852 21 181 17.7 40.2 0.00 0.00 0.00 44 1011.1
20260503201612 21 241 17.7 40.2 0.00 0.00 0.00 45 1011.6
20260503200840 21 218 17.7 35.4 0.00 0.00 0.00 45 1011.4
20260503200335 21 267 17.7 38.6 0.00 0.00 0.00 46 1011.7
20260503195828 21 230 14.5 38.6 0.00 0.00 0.00 44 1011.9
20260503195322 21 253 16.1 40.2 0.00 0.00 0.00 44 1012.0
20260503195040 21 224 19.3 40.2 0.00 0.00 0.00 45 1012.1
20260503194310 21 274 17.7 40.2 0.00 0.00 0.00 43 1012.3
20260503193804 21 161 14.5 33.8 0.00 0.00 0.00 43 1012.7
20260503193259 21 240 14.5 32.2 0.00 0.00 0.00 47 1012.8
20260503192752 21 255 16.1 33.8 0.00 0.00 0.00 46 1013.0
20260503192247 21 247 16.1 33.8 0.00 0.00 0.00 44 1012.9
20260503191741 21 213 16.1 33.8 0.00 0.00 0.00 47 1013.0
20260503191732 21 208 16.1 33.8 0.00 0.00 0.00 45 1013.1
20260503190728 20 257 17.7 35.4 0.00 0.00 0.00 45 1013.3
20260503190222 20 230 17.7 35.4 0.00 0.00 0.00 45 1013.5
20260503185717 20 184 16.1 32.2 0.00 0.00 0.00 48 1013.6
20260503185211 20 248 17.7 35.4 0.00 0.00 0.00 49 1013.8
20260503184704 19 201 17.7 35.4 0.00 0.00 0.00 48 1014.0
20260503184158 19 224 16.1 33.8 0.00 0.00 0.00 46 1014.3
20260503183652 20 278 16.1 32.2 0.00 0.00 0.00 47 1014.4
20260503183147 20 228 16.1 33.8 0.00 0.00 0.00 51 1014.5
20260503182640 20 208 16.1 33.8 0.00 0.00 0.00 48 1014.3
20260503182134 19 218 16.1 32.2 0.00 0.00 0.00 48 1014.5
20260503181629 19 237 16.1 32.2 0.00 0.00 0.00 48 1014.6
20260503181129 19 229 17.7 32.2 0.00 0.00 0.00 49 1014.8
20260503180848 19 290 16.1 32.2 0.00 0.00 0.00 48 1015.1
20260503180129 19 273 16.1 30.6 0.00 0.00 0.00 48 1015.0
20260503175631 19 273 14.5 30.6 0.00 0.00 0.00 48 1015.3
20260503175129 19 259 14.5 30.6 0.00 0.00 0.00 53 1015.6
20260503174629 19 270 16.1 30.6 0.00 0.00 0.00 52 1015.9
20260503174129 18 208 14.5 29.0 0.00 0.00 0.00 55 1015.9
20260503173629 18 256 14.5 30.6 0.00 0.00 0.00 55 1016.1
20260503173134 18 248 14.5 30.6 0.00 0.00 0.00 50 1016.1
20260503172635 18 240 11.3 25.7 0.00 0.00 0.00 52 1016.2
20260503172131 18 0 16.1 32.2 0.00 0.00 0.00 53 1016.1
20260503171631 18 201 17.7 32.2 0.00 0.00 0.00 53 1016.3
20260503171131 18 253 14.5 30.6 0.00 0.00 0.00 52 1016.1
20260503170630 18 241 12.9 29.0 0.00 0.00 0.00 52 1016.2
20260503170127 18 218 12.9 27.4 0.00 0.00 0.00 53 1016.0
20260503160106 16 263 14.5 30.6 0.00 0.00 0.00 58 1017.5
20260503150953 15 250 12.9 27.4 0.00 0.00 0.00 63 1018.0
20260503150938 15 172 9.7 25.7 0.00 0.00 0.00 65 1018.1
20260503131235 10 280 11.3 19.3 0.00 0.00 0.00 73 1018.8
20260503130729 10 243 9.7 19.3 0.00 0.00 0.00 75 1018.8
20260503130223 10 269 8.0 25.7 0.00 0.00 0.00 75 1019.0
20260503120222 7 253 8.0 16.1 0.00 0.00 0.00 82 1018.5
20260503110718 7 208 4.8 14.5 0.00 0.00 0.00 83 1018.0
20260503110217 7 213 4.8 14.5 0.00 0.00 0.00 83 1018.0
20260503100216 7 243 6.4 14.5 0.00 0.00 0.00 82 1018.3